Stewartville, MN

12:45 PM CST on February 10, 2016 (GMT -0600)
Rochester International

Weather History for KRST - January, 2012

Change the Weather History Date:

Tuesday, January 10, 2012

  Actual Average Record
Temperature  
Mean Temperature 40 °F 16 °F  
Max Temperature 54 °F 23 °F 54 °F (2012)
Min Temperature 26 °F 8 °F -28 °F (1982)
Degree Days  
Heating Degree Days 25 50  
Month to date heating degree days 342 491  
Since 1 July heating degree days 2929 3569  
Cooling Degree Days 0 0  
Month to date cooling degree days 0 0  
Year to date cooling degree days 0 0  
Moisture  
Dew Point 30 °F    
Average Humidity 69    
Maximum Humidity 92    
Minimum Humidity 46    
Precipitation  
Precipitation 0.00 in 0.03 in 0.75 in (1975)
Month to date precipitation 0.01 0.28  
Year to date precipitation 0.01 0.28  
Snow  
Snow 0.00 in 0.30 in 3.40 in (1996)
Month to date snowfall 0.1 3.4  
Since 1 July snowfall 8.7 22.8  
Snow Depth 0.00 in    
Sea Level Pressure  
Sea Level Pressure 29.86 in    
Wind  
Wind Speed 10 mph (SSW)    
Max Wind Speed 21 mph    
Max Gust Speed 24 mph    
Visibility 9 miles    
Events      
T = Trace of Precipitation, MM = Missing Value Source: NWS Daily Summary

Daily Weather History Graph

Daily Weather History Graph

Search for Another Location

Airport or City:

Trip Planner

Search our weather history database for the weather conditions in past years. The results will help you decide how hot, cold, wet, or windy it might be!

Date:

Astronomy

Jan. 10, 2012 Rise Set
Actual Time 7:43 AM CST 4:51 PM CST
Civil Twilight 7:11 AM CST 5:24 PM CST
Nautical Twilight 6:35 AM CST 5:59 PM CST
Astronomical Twilight 6:00 AM CST 6:34 PM CST
Moon 6:48 PM CST 8:17 AM CST
Length of Visible Light 10h 12m
Length of Day
9h 08m
Full, 98% of the Moon is Illuminated
Jan 10
Full
Jan 16
Last Quarter
Jan 23
New
Jan 30
First Quarter
Feb 7
Full

Hourly Weather History & Observations

Time (CST) Temp. Windchill Dew Point Humidity Pressure Visibility Wind Dir Wind Speed Gust Speed Precip Events Conditions
12:54 AM 30.0 °F 23.2 °F 27.0 °F 88% 30.00 in 10.0 mi WSW 6.9 mph - N/A   Clear
1:54 AM 30.0 °F 24.1 °F 26.1 °F 85% 30.00 in 10.0 mi WSW 5.8 mph - N/A   Clear
2:54 AM 30.0 °F - 26.1 °F 85% 30.00 in 10.0 mi Calm Calm - N/A   Clear
3:54 AM 27.0 °F 19.5 °F 25.0 °F 92% 29.99 in 10.0 mi SSW 6.9 mph - N/A   Clear
4:54 AM 28.0 °F 24.2 °F 25.0 °F 88% 29.99 in 10.0 mi SW 3.5 mph - N/A   Clear
5:54 AM 26.6 °F 20.0 °F 24.8 °F 93% 29.92 in 10.0 mi South 5.8 mph - N/A   Clear
6:54 AM 27.0 °F 18.7 °F 24.1 °F 89% 29.96 in 10.0 mi South 8.1 mph - N/A   Clear
7:54 AM 28.0 °F 20.8 °F 25.0 °F 88% 29.94 in 10.0 mi South 6.9 mph - N/A   Clear
8:54 AM 33.1 °F 24.4 °F 28.0 °F 82% 29.94 in 10.0 mi South 11.5 mph - N/A   Clear
9:54 AM 39.0 °F 31.0 °F 32.0 °F 76% 29.93 in 10.0 mi SSW 13.8 mph - N/A   Clear
10:54 AM 45.0 °F 38.5 °F 32.0 °F 60% 29.91 in 10.0 mi SSW 13.8 mph - N/A   Clear
11:54 AM 48.9 °F - 32.0 °F 52% 29.88 in 10.0 mi SSW 18.4 mph - N/A   Clear
12:03 PM 50.0 °F - 32.0 °F 50% 29.84 in 1.2 mi SW 18.4 mph - N/A   Haze
12:12 PM 50.0 °F - 32.0 °F 50% 29.84 in 1.5 mi SW 15.0 mph - N/A   Haze
12:15 PM 50.0 °F - 33.8 °F 54% 29.84 in 5.0 mi North - - N/A   Haze
12:54 PM 52.0 °F - 33.1 °F 49% 29.84 in - North - - N/A   Clear
1:54 PM 53.1 °F - 33.1 °F 47% 29.81 in 10.0 mi WSW 18.4 mph - N/A   Clear
2:54 PM 54.0 °F - 33.1 °F 45% 29.80 in 10.0 mi SW 13.8 mph - N/A   Clear
3:54 PM 51.1 °F - 33.1 °F 50% 29.81 in 10.0 mi SSW 8.1 mph - N/A   Clear
4:54 PM 44.1 °F 39.5 °F 32.0 °F 63% 29.80 in 10.0 mi South 8.1 mph - N/A   Clear
5:54 PM 39.9 °F 34.5 °F 30.9 °F 70% 29.79 in 10.0 mi South 8.1 mph - N/A   Clear
6:54 PM 37.9 °F 30.5 °F 30.0 °F 73% 29.78 in 10.0 mi South 11.5 mph - N/A   Clear
7:54 PM 36.0 °F 27.5 °F 30.0 °F 79% 29.76 in 10.0 mi South 12.7 mph - N/A   Clear
8:54 PM 37.0 °F 29.3 °F 30.0 °F 76% 29.74 in 10.0 mi SSW 11.5 mph - N/A   Clear
9:54 PM 37.9 °F 30.5 °F 30.0 °F 73% 29.71 in 10.0 mi South 11.5 mph - N/A   Clear
10:54 PM 37.9 °F 29.6 °F 30.0 °F 73% 29.68 in 10.0 mi SSW 13.8 mph - N/A   Clear
11:54 PM 39.9 °F 32.1 °F 30.0 °F 68% 29.66 in 10.0 mi SW 13.8 mph - N/A   Clear